Regional Weather Roundup
Issued by NWS Newport/Morehead, NC

Current Version | Previous Version | Graphics & Text | Print | Product List | Glossary On
Versions: 1 2 3 4 5 6 7 8 9 10 11 12 13 14 15 16 17 18 19 20 21 22 23 24 25 26 27 28 29 30 31 32 33 34 35 36 37 38 39 40 41 42 43 44 45 46 47 48 49 50
739 ASUS42 KMHX 211125 RWRMHX WEATHER ROUNDUP FOR EASTERN NORTH CAROLINA NATIONAL WEATHER SERVICE NEWPORT/MOREHEAD CITY NC 700 AM EDT THU SEP 21 2017 NOTE: "FAIR" INDICATES FEW OR NO CLOUDS BELOW 12,000 FEET WITH NO SIGNIFICANT WEATHER AND/OR OBSTRUCTIONS TO VISIBILITY NCZ015>017-031-032-045>047-102-103-211200- NORTH COAST CITY SKY/WX TMP DP RH WIND PRES REMARKS EDENTON CLEAR 67 65 92 CALM 30.01S ELIZABETH CITY CLEAR 67 67 100 CALM 30.00R KITTY HAWK SUNNY 70 70 100 CALM 29.99R MANTEO CLEAR 66 66 99 CALM 30.00R FOG $$ NCZ045>047-081-094-103-104-211200- CENTRAL COAST CITY SKY/WX TMP DP RH WIND PRES REMARKS FRISCO PTCLDY 69 68 96 CALM 29.99R FOG $$ NCZ095-097-098-100-101-211200- SOUTHERN COAST CITY SKY/WX TMP DP RH WIND PRES REMARKS BEAUFORT CLEAR 73 69 87 NW7 30.01R CEDAR ISLAND NOT AVBL JACKSONVILLE CLEAR 69 69 100 CALM 30.01R PINEY ISLAND N/A N/A N/A N/A W6 30.00R WILMINGTON CLEAR 72 71 97 CALM 30.02R $$ NCZ011>013-027>030-043-044-078>080-089-090>093-098-211200- COASTAL PLAIN CITY SKY/WX TMP DP RH WIND PRES REMARKS AHOSKIE N/A 64 64 100 CALM 30.02R FOG CLINTON CLEAR 65 65 100 CALM 30.03R ELIZABETHTOWN NOT AVBL GOLDSBORO CLEAR 66 66 100 CALM 30.00R GREENVILLE CLEAR 68 66 94 CALM 30.03R FOG HAVELOCK CLEAR 71 68 90 CALM 30.02R KENANSVILLE CLEAR 64 63 94 CALM 30.03R FOG KINSTON CLEAR 64 64 100 SW3 30.02R FOG NEW BERN CLEAR 69 68 96 S3 30.02R FOG RICHLANDS CLEAR 66 64 94 CALM 30.03R FOG ROCKY MOUNT CLEAR 67 67 100 N3 30.02R WASHINGTON CLEAR 67 67 97 CALM 30.02R FOG WHITEVILLE CLEAR 71 69 96 CALM 30.02R FOG $$ AMZ130-135-150-152-154-156-158-170-250-252-270-ANZ085-086-088-633-658-670-211200- MARINE OBSERVATIONS STATION/POSITION TIME TEMP WIND PRES WAVE SWELL AIR SEA DIR/SP/G HT/PER HT/PER (UTC) (F) (DEG/KT/KT) (MB) (FT/S) (FT/S) CHESAPEAKE LIGHT NOT AVBL 64 E VA BEACH 1050 70 70 320/ 4/ 6 1015.8 6/11 7/11 DUCK 1100 72 75 290/ 6/ 7 1015.4 2 E DUCK 1030 75 N/A 4/10 2/11 OREGON INLET 1100 72 77 280/ 5/ 6 1015.5 13E OREGON INLT 1048 74 N/A 5/10 5/10 HATTERAS CG 1100 76 77 360/ 3/ 3 1015.6 DIAMOND BUOY 1050 75 75 280/ 2/ 2 1015.2 4/10 5/10 CAPE LOOKOUT 1100 76 290/ 7/ 8 1015.8 BEAUFORT LAB 1100 74 75 320/ 4/ 5 1015.5 30 SE NEW RVR IN 1108 78 280/ 8/ 10 1016.1 30 SE NEW RVR IN NOT AVBL 27 SE WRIGHTSVLE 1108 78 80 260/ 12/ 16 1016.3 5 SE WRIGHTSVLE 1108 76 78 280/ 10/ 14 1016.1 225 S CAPE HAT 1050 78 79 CALM / 2 1016.4 6/11 5/11 41 SE CHARLESTON 1100 79 81 270/ 6/ 8 1016.1 $$

USA.gov is the U.S. government's official web portal to all federal, state and local government web resources and services.